Flag for Canada

Past Weather in Salaberry-de-Valleyfield, Quebec, Canada — Yesterday and Last 2 Weeks

Now
68 °F

Mild.


Feels Like: 68 °F
Forecast: N/A
Wind: 5 mph from East

Location: St Anicet

Current Time: May 22, 2019 at 5:00:40 pm

Latest Report: May 22, 2019 at 4:00 pm


Visibility: N/A

Pressure: 30.22 "Hg

Humidity: 39%

Dew Point: 42 °F

Location of Salaberry-de-ValleyfieldLocation

Past Weather in Salaberry-de-Valleyfield — Graph

°F

Salaberry-de-Valleyfield Temperature Yesterday

Maximum temperature yesterday: 62 °F (at 5:00 pm)
Minimum temperature yesterday: 45 °F (at 11:00 pm)
Average temperature yesterday: 53 °F

High & Low Weather Summary for the Past Weeks

 TemperatureHumidityPressure
High73 °F (May 20, 2:00 pm)100% (May 10, 11:00 am)30.41 "Hg (May 10, 11:00 am)
Low36 °F (May 8, 6:00 am)24% (May 8, 6:00 pm)29.57 "Hg (May 20, 3:00 pm)
Average51 °F70%29.94 "Hg
* Reported May 7 4:00 pm — May 22 4:00 pm, Salaberry-de-Valleyfield. Weather by CustomWeather, © 2019

Note: Actual official high and low records may vary slightly from our data, if they occured in-between our weather recording intervals... More about our weather records

Advertising

Salaberry-de-Valleyfield Weather History for the Previous 24 Hours

Scroll right to see more
 ConditionsComfort  
Time TempWeatherWind HumidityBarometerVisibility
4:00 pm
Wed, May 22
68 °FMild.5 mph39%30.22 "HgN/A
3:00 pm68 °FMild.3 mph35%30.22 "HgN/A
2:00 pm65 °FMild.5 mph33%30.24 "HgN/A
1:00 pm65 °FMild.5 mph37%30.26 "HgN/A
12:00 pm62 °FRefreshingly cool.6 mph35%30.27 "HgN/A
11:00 am61 °FRefreshingly cool.3 mph44%30.28 "HgN/A
10:00 am59 °FRefreshingly cool.3 mph46%30.29 "HgN/A
9:00 am57 °FRefreshingly cool.3 mph49%30.27 "HgN/A
8:00 am53 °FCool.1 mph65%30.26 "HgN/A
7:00 am45 °FQuite cool.2 mph85%30.24 "HgN/A
6:00 am38 °FChilly.1 mph97%30.22 "HgN/A
5:00 am37 °FChilly.2 mph95%30.19 "HgN/A
4:00 am39 °FChilly.3 mph94%30.17 "HgN/A
3:00 am39 °FChilly.2 mph95%30.14 "HgN/A
2:00 am40 °FQuite cool.No wind93%30.13 "HgN/A
1:00 am41 °FQuite cool.2 mph93%30.11 "HgN/A
12:00 am43 °FQuite cool.1 mph91%30.09 "HgN/A
11:00 pm
Tue, May 21
45 °FQuite cool.2 mph84%30.09 "HgN/A
10:00 pm48 °FCool.2 mph77%30.06 "HgN/A
9:00 pm50 °FCool.1 mph74%30.05 "HgN/A
8:00 pm58 °FRefreshingly cool.1 mph51%30.03 "HgN/A
7:00 pm60 °FRefreshingly cool.5 mph43%30.01 "HgN/A
6:00 pm61 °FRefreshingly cool.8 mph39%30.00 "HgN/A
5:00 pm62 °FRefreshingly cool.14 mph37%29.98 "HgN/A
Weather by CustomWeather, © 2019

See weather overview